SCP
0 0 -0 -0 -0 -0 -0 -0 -0 -0 -0 -0 -0 -0 -0 -0 -0 -0 -0 -0 -0 -0 -0 -0 -0 -0 -0 -0 -0 -0 -0 -0 -0 -0 -0 -0 -0 -0 -0 -0 0 0 -0
-0 -0 -0 -0 -0 -0 -0 -0 -0 -0 -0 -0 -0 -0 -0 -0 -0 -0 -0 -0 -0 -0 -0 -0 -0 -0 -0 -0 -0 -0 -0 -0 0 0 -0 -0 -0 -0 -0 -0 -0 -0 -0
-0 -0 -0 -0 -0 -0 -0 -0 -0 -0 -0 -0 -0 -0 -0 -0 -0 -0 -0 -0 -0 -0 -0 -0 -0 -0 -0 -0 -0 -0 -0 -0 -0 0 0 0 0 -0 -0 -0 -0 -0 -0
-0 -0 -0 -0 -0 -0 -0 -0 -0 -0 -0 -0 -0 -0 -0 -0 -0 -0 -0 -0 -0 -0 -0 -0 -0 -0 -0 -0 -0 -0 -0 -0 -0 -0 -0 0 -0 -0 -0 -0 -0 -0 -0
-0 -0 -0 -0 -0 -0 -0 -0 -0 -0 -0 -0 -0 -0 -0 -0 -0 -0 -0 -0 -0 -0 -0 -0 -0 -0 -0 -0 -0 -0 -0 -0 -0 -0 -0 0 -0 -0 -0 -0 -0 -0 -0
-0 -0 -0 -0 -0 -0 -0 -0 -0 -0 -0 -0 -0 -0 -0 -0 -0 -0 -0 -0 -0 -0 -0 -0 -0 -0 -0 -0 -0 -0 -0 -0 0 0 0 0 0 -0 -0 -0 -0 -0 0
-0 -0 -0 -0 -0 -0 -0 -0 -0 -0 -0 -0 -0 -0 -0 -0 -0 -0 -0 -0 -0 -0 -0 -0 -0 -0 -0 -0 -0 -0 -0 0 0 0 0 0 0 -0 0 0 0 0 0
-0 -0 -0 -0 -0 -0 -0 -0 -0 -0 -0 -0 -0 -0 -0 -0 -0 -0 -0 -0 -0 -0 -0 -0 -0 -0 -0 -0 -0 -0 -0 -0 0 0 0 0 0 0 0 0 0 0 0
-0 -0 0 0 -0 -0 -0 -0 -0 -0 -0 -0 -0 -0 -0 -0 -0 -0 -0 -0 -0 -0 -0 -0 -0 -0 -0 -0 -0 0 -0 -0 0 0 0 0 0 0 0 0 0 0 0
0 0 0 0 0 0 0 0 -0 -0 0 -0 -0 -0 -0 -0 -0 -0 0 -0 -0 -0 -0 -0 -0 0 -0 0 0 0 0 0 0 0 0 0 0 0 0 0 0 0 0
0 0 0 0 0 0 0 0 0 -0 -0 -0 0 -0 -0 0 -0 -0 0 -0 0 -0 0 0 0 0 0 0 0 0 0 0 0 0 0 0 0 0 0 0 0 0 0
0 0 0 0 0 0 0 0 0 0 0 0 0 0 0 0 0 0 0 0 0 0 -0 0 0 0 0 0 0 0 0 0 0 0 0 0 0 0 0 0 0 0 0
0 0 0 0 0 0 0 0 0 0 0 0 0 0 0 0 0 0 0 0 0 0 0 0 0 0 -0 -0 0 0 0 0 0 0 0 0 0 0 0 0 0 0 0
0 0 0 0 0 0 0 0 0 0 0 0 0 0 0 0 0 0 0 0 0 0 0 0 0 0 0 0 0 0 0 0 0 0 0 0 0 0 0 0 0 0 0
0 0 0 0 0 0 0 0 0 0 0 0 0 0 0 0 0 0 0 0 0 0 0 0 0 0 0 0 0 0 0 0 0 0 0 0 0 0 0 0 0 0 0
0 0 0 0 0 0 0 0 0 0 0 0 0 0 0 0 0 0 0 0 0 0 0 0 0 0 0 0 0 0 0 0 0 0 0 0 0 0 0 0 0 0 0
0 0 0 0 0 0 0 0 0 0 0 0 0 0 0 0 0 0 0 0 0 0 0 0 0 0 0 0 0 0 0 0 0 0 0 0 0 0 0 0 0 0 0
0 0 0 0 0 0 0 0 0 0 0 0 0 0 0 0 0 0 0 0 0 0 0 0 0 0 0 0 0 0 0 0 0 0 0 0 0 0 0 0 0 0 0
0 0 0 0 0 0 0 0 0 0 0 0 0 0 0 0 0 0 0 0 0 0 0 0 0 0 0 0 0 0 0 0 0 0 0 0 0 0 0 0 0 0 0
0 0 0 0 0 0 0 0 0 0 0 0 0 0 0 0 0 0 0 0 0 0 0 0 0 0 0 0 0 0 0 0 0 0 0 0 0 0 0 0 0 0 0
0 0 0 0 0 0 0 0 0 0 0 0 0 0 0 0 0 0 0 0 0 0 0 0 0 0 0 0 0 0 0 0 0 0 0 0 0 0 0 0 0 0 0
0 0 0 0 0 0 0 0 0 0 0 0 0 0 0 0 0 0 0 0 0 0 0 0 0 0 0 0 0 0 0 0 0 0 0 0 0 0 0 0 0 0 0
0 0 0 0 0 0 0 0 0 0 0 0 0 0 0 0 0 0 0 0 0 0 0 0 0 0 0 0 0 0 0 0 0 0 0 0 0 0 0 0 0 0 0
0 0 0 0 0 0 0 0 0 0 0 0 0 0 0 0 0 0 0 0 0 0 0 0 0 0 0 0 0 0 0 0 0 0 0 0 0 0 0 0 0 0 0
0 0 0 0 0 0 0 0 0 0 0 0 0 0 0 0 0 0 0 0 0 0 0 0 0 0 0 0 0 0 0 0 0 0 0 0 0 0 0 0 0 0 0
0 0 0 0 0 0 0 0 0 0 0 0 0 0 0 0 0 0 0 0 0 0 0 0 0 0 0 0 0 0 0 0 0 0 0 0 0 0 0 0 0 0 0
Wind_Speed_500mb
14 24 23 24 24 23 22 22 23 22 20 17 15 18 20 22 24 27 28 28 27 27 26 25 24 21 24 23 23 25 28 28 24 22 22 18 22 28 30 32 25 24 24
13 23 24 25 25 23 22 21 21 20 17 14 15 17 17 17 20 21 21 24 24 23 22 22 22 20 21 22 22 26 30 31 28 27 24 19 12 15 18 20 25 30 23
13 23 25 24 23 22 22 21 20 19 16 14 12 15 12 14 15 17 19 22 23 21 20 19 17 17 17 18 20 23 29 28 26 25 20 18 11 12 11 11 11 13 17
16 16 25 21 20 21 22 22 19 16 13 12 13 11 8 13 15 17 20 24 25 21 16 16 17 17 15 15 18 22 26 23 23 21 21 22 18 15 14 12 10 9 7
17 15 24 20 16 18 18 18 17 15 11 10 11 12 8 16 15 16 21 25 27 24 16 17 18 17 16 15 17 20 24 21 23 17 16 20 16 18 14 14 11 9 8
20 21 18 23 19 15 15 18 17 14 12 9 9 9 7 12 17 19 23 26 29 26 22 20 19 18 17 15 15 18 21 23 18 17 18 11 17 15 12 13 12 10 7
26 24 21 22 23 20 15 16 16 13 11 10 12 10 9 10 14 18 22 24 25 24 21 20 21 20 19 17 16 17 17 16 11 7 5 4 14 20 18 16 15 14 11
28 24 22 20 28 26 20 16 16 15 13 10 9 10 7 5 8 15 19 21 21 19 20 20 19 19 18 17 15 13 10 7 5 2 3 9 13 19 20 18 17 15 15
31 25 20 27 25 23 18 15 16 15 14 13 11 11 9 5 3 8 14 18 20 18 16 19 20 19 16 14 13 10 4 3 10 9 10 12 13 17 18 19 20 20 19
28 33 27 28 36 33 27 19 15 16 16 15 14 12 10 10 5 6 12 19 18 16 14 14 15 18 16 14 13 8 4 5 7 8 11 13 15 16 18 18 18 19 19
25 26 30 28 30 37 29 22 20 17 15 15 15 14 12 12 5 6 11 18 25 29 15 15 17 17 18 17 15 12 11 12 14 15 15 16 18 18 18 18 19 19 19
25 27 27 27 24 39 38 25 23 26 24 17 17 16 15 18 11 9 2 5 11 18 25 28 24 27 23 22 21 21 22 21 20 19 19 19 19 20 20 21 21 21 21
25 26 28 28 27 27 43 37 27 25 29 27 24 19 20 20 17 15 9 4 3 6 10 21 26 30 33 26 30 30 31 32 34 32 27 23 22 22 22 21 22 23 24
28 26 24 26 30 32 35 46 32 29 32 29 27 25 25 23 23 17 15 7 2 2 4 9 12 14 28 26 22 24 25 25 26 28 27 26 24 22 20 20 20 21 22
20 20 21 22 24 29 36 43 47 43 34 32 28 26 24 23 22 20 15 8 6 6 2 8 9 11 10 11 14 15 14 16 20 23 25 24 21 21 21 22 22 23 23
23 23 24 26 27 30 40 40 41 39 36 29 28 25 26 25 23 21 17 15 11 7 9 6 5 11 8 9 18 14 14 18 20 20 24 26 25 22 20 20 21 21 22
27 28 29 29 29 32 39 42 42 36 30 29 27 26 25 24 27 23 17 14 14 11 7 8 4 10 8 9 11 12 15 14 15 20 23 23 20 19 18 18 18 20 22
30 29 28 29 33 37 38 43 43 40 35 28 24 20 21 21 21 20 19 15 14 8 1 6 5 7 6 10 12 11 9 9 12 16 17 17 19 22 23 24 24 21 22
31 29 27 27 33 39 44 47 47 46 39 31 25 26 24 22 19 19 19 15 11 7 7 7 6 10 12 9 5 6 10 15 16 15 18 20 24 27 29 32 32 31 32
29 27 26 27 37 43 45 50 47 44 40 34 30 27 22 22 20 17 15 14 13 10 9 8 6 2 10 15 12 9 14 15 12 14 20 21 24 24 32 38 40 39 41
28 26 27 36 43 47 49 51 55 50 41 37 36 31 29 25 21 19 17 15 13 11 9 9 9 10 14 17 13 15 14 12 10 14 16 19 26 33 37 43 42 44 45
31 31 36 41 46 52 54 54 50 46 43 41 40 35 29 26 25 21 19 20 19 15 14 11 11 11 14 14 14 7 4 3 13 13 18 25 33 39 43 44 46 47 49
39 42 46 52 58 56 56 53 52 47 47 45 41 38 36 31 30 26 24 20 17 14 12 12 14 14 19 19 17 12 4 3 26 14 22 26 40 47 48 50 52 53 50
48 49 54 54 52 50 51 51 48 47 51 46 46 44 42 36 31 26 20 16 13 12 12 13 17 19 17 20 21 22 18 16 11 17 25 42 45 49 53 55 56 57 57
57 59 58 58 56 53 51 49 50 54 52 54 51 47 43 37 28 23 18 14 12 11 13 16 18 21 24 24 24 18 16 15 17 26 38 55 55 54 55 54 55 57 60
63 64 63 61 58 53 53 55 54 55 63 60 54 46 41 34 27 21 17 14 11 12 13 16 21 23 25 25 22 22 21 22 27 32 41 51 54 53 51 52 53 56 59
Wind_Direction_500mb
175 175 157 149 144 137 128 123 121 116 105 93 83 84 73 62 56 48 50 55 58 58 60 65 68 72 73 81 76 73 72 73 66 57 54 60 66 77 71 67 69 67 65
191 172 159 153 150 147 142 135 129 121 111 100 99 97 91 69 55 49 47 48 46 47 54 58 66 73 75 79 80 80 77 74 59 44 48 48 71 74 68 65 65 67 63
168 171 168 157 153 152 150 145 141 133 119 109 102 111 100 70 50 36 35 35 34 38 45 51 55 61 72 83 87 87 91 83 62 44 19 48 86 77 74 67 55 53 62
166 176 175 165 163 155 156 155 150 140 123 118 120 122 84 51 38 45 36 29 23 23 36 45 46 47 55 69 84 90 98 92 74 62 36 46 55 64 59 54 50 47 37
168 169 170 156 155 161 160 160 157 148 135 129 126 129 68 49 48 43 36 33 31 39 54 50 45 41 44 61 77 94 108 87 67 65 41 39 29 43 50 43 35 36 37
156 145 167 163 163 174 170 170 173 166 154 148 142 131 92 53 45 48 42 36 35 42 49 47 44 44 47 59 81 108 113 88 88 79 69 52 34 33 35 34 20 17 17
155 162 174 175 178 183 199 178 181 174 169 161 153 147 136 70 64 54 43 38 37 40 44 43 40 44 52 65 89 123 134 122 119 135 56 28 41 26 28 20 9 5 0
164 173 189 197 179 200 199 187 187 187 181 173 164 159 161 105 60 43 36 34 31 33 39 44 47 50 55 69 93 126 150 176 201 239 355 2 357 353 8 8 3 360 357
181 172 171 190 193 205 205 202 197 189 184 188 184 187 190 196 89 43 28 29 28 28 34 41 45 50 55 66 79 96 119 344 358 7 6 1 359 357 3 4 358 356 358
187 194 180 178 202 204 200 200 205 203 194 196 198 207 212 214 193 59 37 26 25 30 32 46 49 52 52 50 56 65 61 349 0 4 1 0 356 354 356 358 358 355 356
194 194 198 195 193 205 205 205 189 206 215 211 214 219 217 215 182 123 56 36 15 19 25 45 39 41 41 42 41 32 18 359 358 354 352 351 349 348 348 348 347 347 348
202 203 206 210 210 202 195 194 204 208 221 229 231 231 220 208 205 201 35 72 57 37 23 22 41 37 34 38 36 30 21 10 2 358 353 348 345 343 342 341 339 338 336
223 213 210 214 213 199 202 192 198 207 217 216 216 213 203 210 209 212 217 206 167 86 61 23 23 13 15 31 37 36 34 30 21 11 2 351 343 339 336 335 333 331 331
224 226 225 226 222 212 201 198 195 199 207 203 201 202 203 202 209 216 191 243 219 58 52 31 29 33 15 23 31 30 27 25 19 13 7 357 347 336 328 324 322 322 323
221 227 230 230 225 217 205 198 199 205 206 200 192 195 187 194 199 199 208 220 244 298 351 1 340 3 357 15 5 1 11 13 11 5 0 355 350 343 335 328 322 317 313
235 239 240 238 228 214 200 194 195 207 213 209 205 201 202 197 205 213 219 239 255 268 292 261 301 333 325 340 327 336 349 353 350 349 351 349 344 339 333 324 318 312 310
242 246 245 239 226 213 199 189 194 193 195 204 201 189 190 190 192 208 198 239 235 240 225 276 310 329 285 289 322 341 344 338 331 344 348 346 347 347 343 337 328 319 313
254 255 250 235 216 202 194 187 193 192 194 185 185 191 182 183 181 186 186 230 190 196 200 231 214 259 294 303 319 320 314 325 349 349 355 8 18 17 13 11 1 352 341
253 254 246 218 194 189 181 185 188 189 183 183 181 181 176 178 178 188 198 198 185 178 198 214 248 287 309 331 22 62 73 58 16 26 21 24 20 20 19 18 12 360 351
238 234 223 185 173 178 180 184 184 188 183 180 189 176 169 168 169 172 173 172 175 185 220 254 278 357 67 68 85 96 78 46 57 11 3 12 20 20 12 5 1 359 357
224 213 184 169 170 176 180 186 181 176 178 181 178 167 167 170 172 170 170 167 166 167 142 119 92 79 68 80 83 93 82 60 23 3 12 3 1 355 353 353 356 352 350
211 188 174 173 175 179 184 185 186 186 177 180 174 171 173 171 160 158 151 143 132 126 119 103 78 54 53 54 68 116 134 139 12 326 333 339 346 342 342 346 348 348 347
195 183 180 177 179 179 179 181 180 180 178 173 172 169 158 158 150 143 137 129 121 110 96 76 56 38 40 38 35 51 66 350 332 275 312 329 332 339 343 344 346 345 344
188 185 185 185 184 184 186 186 188 191 182 173 165 158 152 149 147 143 139 134 124 99 80 63 54 44 40 36 29 26 19 7 351 314 308 325 335 341 344 346 346 345 339
191 189 187 187 187 188 187 188 190 186 178 165 159 157 153 149 144 141 134 122 109 96 70 52 39 27 22 20 21 28 19 4 349 330 327 328 329 340 342 344 344 341 338
192 192 191 190 190 189 190 190 191 188 173 167 164 162 157 152 148 145 141 128 108 80 62 41 27 19 17 13 10 4 360 358 349 344 334 332 332 333 333 338 339 338 336
Wind_Speed_850mb
14 24 23 24 24 23 22 22 23 22 20 17 15 18 20 22 24 27 28 28 27 27 26 25 24 21 24 23 23 25 28 28 24 22 22 18 22 28 30 32 25 24 24
13 23 24 25 25 23 22 21 21 20 17 14 15 17 17 17 20 21 21 24 24 23 22 22 22 20 21 22 22 26 30 31 28 27 24 19 12 15 18 20 25 30 23
13 23 25 24 23 22 22 21 20 19 16 14 12 15 12 14 15 17 19 22 23 21 20 19 17 17 17 18 20 23 29 28 26 25 20 18 11 12 11 11 11 13 17
16 16 25 21 20 21 22 22 19 16 13 12 13 11 8 13 15 17 20 24 25 21 16 16 17 17 15 15 18 22 26 23 23 21 21 22 18 15 14 12 10 9 7
17 15 24 20 16 18 18 18 17 15 11 10 11 12 8 16 15 16 21 25 27 24 16 17 18 17 16 15 17 20 24 21 23 17 16 20 16 18 14 14 11 9 8
20 21 18 23 19 15 15 18 17 14 12 9 9 9 7 12 17 19 23 26 29 26 22 20 19 18 17 15 15 18 21 23 18 17 18 11 17 15 12 13 12 10 7
26 24 21 22 23 20 15 16 16 13 11 10 12 10 9 10 14 18 22 24 25 24 21 20 21 20 19 17 16 17 17 16 11 7 5 4 14 20 18 16 15 14 11
28 24 22 20 28 26 20 16 16 15 13 10 9 10 7 5 8 15 19 21 21 19 20 20 19 19 18 17 15 13 10 7 5 2 3 9 13 19 20 18 17 15 15
31 25 20 27 25 23 18 15 16 15 14 13 11 11 9 5 3 8 14 18 20 18 16 19 20 19 16 14 13 10 4 3 10 9 10 12 13 17 18 19 20 20 19
28 33 27 28 36 33 27 19 15 16 16 15 14 12 10 10 5 6 12 19 18 16 14 14 15 18 16 14 13 8 4 5 7 8 11 13 15 16 18 18 18 19 19
25 26 30 28 30 37 29 22 20 17 15 15 15 14 12 12 5 6 11 18 25 29 15 15 17 17 18 17 15 12 11 12 14 15 15 16 18 18 18 18 19 19 19
25 27 27 27 24 39 38 25 23 26 24 17 17 16 15 18 11 9 2 5 11 18 25 28 24 27 23 22 21 21 22 21 20 19 19 19 19 20 20 21 21 21 21
25 26 28 28 27 27 43 37 27 25 29 27 24 19 20 20 17 15 9 4 3 6 10 21 26 30 33 26 30 30 31 32 34 32 27 23 22 22 22 21 22 23 24
28 26 24 26 30 32 35 46 32 29 32 29 27 25 25 23 23 17 15 7 2 2 4 9 12 14 28 26 22 24 25 25 26 28 27 26 24 22 20 20 20 21 22
20 20 21 22 24 29 36 43 47 43 34 32 28 26 24 23 22 20 15 8 6 6 2 8 9 11 10 11 14 15 14 16 20 23 25 24 21 21 21 22 22 23 23
23 23 24 26 27 30 40 40 41 39 36 29 28 25 26 25 23 21 17 15 11 7 9 6 5 11 8 9 18 14 14 18 20 20 24 26 25 22 20 20 21 21 22
27 28 29 29 29 32 39 42 42 36 30 29 27 26 25 24 27 23 17 14 14 11 7 8 4 10 8 9 11 12 15 14 15 20 23 23 20 19 18 18 18 20 22
30 29 28 29 33 37 38 43 43 40 35 28 24 20 21 21 21 20 19 15 14 8 1 6 5 7 6 10 12 11 9 9 12 16 17 17 19 22 23 24 24 21 22
31 29 27 27 33 39 44 47 47 46 39 31 25 26 24 22 19 19 19 15 11 7 7 7 6 10 12 9 5 6 10 15 16 15 18 20 24 27 29 32 32 31 32
29 27 26 27 37 43 45 50 47 44 40 34 30 27 22 22 20 17 15 14 13 10 9 8 6 2 10 15 12 9 14 15 12 14 20 21 24 24 32 38 40 39 41
28 26 27 36 43 47 49 51 55 50 41 37 36 31 29 25 21 19 17 15 13 11 9 9 9 10 14 17 13 15 14 12 10 14 16 19 26 33 37 43 42 44 45
31 31 36 41 46 52 54 54 50 46 43 41 40 35 29 26 25 21 19 20 19 15 14 11 11 11 14 14 14 7 4 3 13 13 18 25 33 39 43 44 46 47 49
39 42 46 52 58 56 56 53 52 47 47 45 41 38 36 31 30 26 24 20 17 14 12 12 14 14 19 19 17 12 4 3 26 14 22 26 40 47 48 50 52 53 50
48 49 54 54 52 50 51 51 48 47 51 46 46 44 42 36 31 26 20 16 13 12 12 13 17 19 17 20 21 22 18 16 11 17 25 42 45 49 53 55 56 57 57
57 59 58 58 56 53 51 49 50 54 52 54 51 47 43 37 28 23 18 14 12 11 13 16 18 21 24 24 24 18 16 15 17 26 38 55 55 54 55 54 55 57 60
63 64 63 61 58 53 53 55 54 55 63 60 54 46 41 34 27 21 17 14 11 12 13 16 21 23 25 25 22 22 21 22 27 32 41 51 54 53 51 52 53 56 59
Wind_Direction_850mb
175 175 157 149 144 137 128 123 121 116 105 93 83 84 73 62 56 48 50 55 58 58 60 65 68 72 73 81 76 73 72 73 66 57 54 60 66 77 71 67 69 67 65
191 172 159 153 150 147 142 135 129 121 111 100 99 97 91 69 55 49 47 48 46 47 54 58 66 73 75 79 80 80 77 74 59 44 48 48 71 74 68 65 65 67 63
168 171 168 157 153 152 150 145 141 133 119 109 102 111 100 70 50 36 35 35 34 38 45 51 55 61 72 83 87 87 91 83 62 44 19 48 86 77 74 67 55 53 62
166 176 175 165 163 155 156 155 150 140 123 118 120 122 84 51 38 45 36 29 23 23 36 45 46 47 55 69 84 90 98 92 74 62 36 46 55 64 59 54 50 47 37
168 169 170 156 155 161 160 160 157 148 135 129 126 129 68 49 48 43 36 33 31 39 54 50 45 41 44 61 77 94 108 87 67 65 41 39 29 43 50 43 35 36 37
156 145 167 163 163 174 170 170 173 166 154 148 142 131 92 53 45 48 42 36 35 42 49 47 44 44 47 59 81 108 113 88 88 79 69 52 34 33 35 34 20 17 17
155 162 174 175 178 183 199 178 181 174 169 161 153 147 136 70 64 54 43 38 37 40 44 43 40 44 52 65 89 123 134 122 119 135 56 28 41 26 28 20 9 5 0
164 173 189 197 179 200 199 187 187 187 181 173 164 159 161 105 60 43 36 34 31 33 39 44 47 50 55 69 93 126 150 176 201 239 355 2 357 353 8 8 3 360 357
181 172 171 190 193 205 205 202 197 189 184 188 184 187 190 196 89 43 28 29 28 28 34 41 45 50 55 66 79 96 119 344 358 7 6 1 359 357 3 4 358 356 358
187 194 180 178 202 204 200 200 205 203 194 196 198 207 212 214 193 59 37 26 25 30 32 46 49 52 52 50 56 65 61 349 0 4 1 0 356 354 356 358 358 355 356
194 194 198 195 193 205 205 205 189 206 215 211 214 219 217 215 182 123 56 36 15 19 25 45 39 41 41 42 41 32 18 359 358 354 352 351 349 348 348 348 347 347 348
202 203 206 210 210 202 195 194 204 208 221 229 231 231 220 208 205 201 35 72 57 37 23 22 41 37 34 38 36 30 21 10 2 358 353 348 345 343 342 341 339 338 336
223 213 210 214 213 199 202 192 198 207 217 216 216 213 203 210 209 212 217 206 167 86 61 23 23 13 15 31 37 36 34 30 21 11 2 351 343 339 336 335 333 331 331
224 226 225 226 222 212 201 198 195 199 207 203 201 202 203 202 209 216 191 243 219 58 52 31 29 33 15 23 31 30 27 25 19 13 7 357 347 336 328 324 322 322 323
221 227 230 230 225 217 205 198 199 205 206 200 192 195 187 194 199 199 208 220 244 298 351 1 340 3 357 15 5 1 11 13 11 5 0 355 350 343 335 328 322 317 313
235 239 240 238 228 214 200 194 195 207 213 209 205 201 202 197 205 213 219 239 255 268 292 261 301 333 325 340 327 336 349 353 350 349 351 349 344 339 333 324 318 312 310
242 246 245 239 226 213 199 189 194 193 195 204 201 189 190 190 192 208 198 239 235 240 225 276 310 329 285 289 322 341 344 338 331 344 348 346 347 347 343 337 328 319 313
254 255 250 235 216 202 194 187 193 192 194 185 185 191 182 183 181 186 186 230 190 196 200 231 214 259 294 303 319 320 314 325 349 349 355 8 18 17 13 11 1 352 341
253 254 246 218 194 189 181 185 188 189 183 183 181 181 176 178 178 188 198 198 185 178 198 214 248 287 309 331 22 62 73 58 16 26 21 24 20 20 19 18 12 360 351
238 234 223 185 173 178 180 184 184 188 183 180 189 176 169 168 169 172 173 172 175 185 220 254 278 357 67 68 85 96 78 46 57 11 3 12 20 20 12 5 1 359 357
224 213 184 169 170 176 180 186 181 176 178 181 178 167 167 170 172 170 170 167 166 167 142 119 92 79 68 80 83 93 82 60 23 3 12 3 1 355 353 353 356 352 350
211 188 174 173 175 179 184 185 186 186 177 180 174 171 173 171 160 158 151 143 132 126 119 103 78 54 53 54 68 116 134 139 12 326 333 339 346 342 342 346 348 348 347
195 183 180 177 179 179 179 181 180 180 178 173 172 169 158 158 150 143 137 129 121 110 96 76 56 38 40 38 35 51 66 350 332 275 312 329 332 339 343 344 346 345 344
188 185 185 185 184 184 186 186 188 191 182 173 165 158 152 149 147 143 139 134 124 99 80 63 54 44 40 36 29 26 19 7 351 314 308 325 335 341 344 346 346 345 339
191 189 187 187 187 188 187 188 190 186 178 165 159 157 153 149 144 141 134 122 109 96 70 52 39 27 22 20 21 28 19 4 349 330 327 328 329 340 342 344 344 341 338
192 192 191 190 190 189 190 190 191 188 173 167 164 162 157 152 148 145 141 128 108 80 62 41 27 19 17 13 10 4 360 358 349 344 334 332 332 333 333 338 339 338 336